This demonstration page uses our WeatherBlox Daily Observations layout. Learn more.

Left ArrowRight Arrow

Hourly Observations for May 3, 2017

Temp ( °F °C ) Dew Point ( °F °C ) Humidity (%) Winds ( mph kmh ) Pressure ( in mb ) Visibility ( mi km ) Precip ( " mm )
12:53 am 00:53 Clear 56 13.3 50 10 81 81 Calm 30.04 1017 10 16 0.00 0.00
1:53 am 01:53 Clear 55 12.8 51 10.6 87 87 Calm 30.03 1017 10 16 0.00 0.00
2:53 am 02:53 Clear 52 11.1 51 10.6 97 97 Calm 30.03 1017 10 16 0.00 0.00
3:53 am 03:53 Clear 51 10.6 50 10 96 96 Calm 30.02 1017 10 16 0.00 0.00
4:53 am 04:53 Clear 51 10.6 49 9.4 92 92 Calm 30.03 1017 10 16 0.00 0.00
5:53 am 05:53 Clear 50 10 49 9.4 96 96 Calm 30.04 1017 10 16 0.00 0.00
6:53 am 06:53 Sunny 49 9.4 49 9.4 100 100 Calm 30.05 1018 10 16 0.00 0.00
7:53 am 07:53 Sunny 54 12.2 52 11.1 93 93 Calm 30.06 1018 10 16 0.00 0.00
8:53 am 08:53 Sunny 61 16.1 54 12.2 78 78 Calm 30.07 1018 10 16 0.00 0.00
9:53 am 09:53 Sunny 68 20 52 11.1 57 57 Calm 30.07 1018 10 16 0.00 0.00
10:53 am 10:53 Sunny 74 23.3 49 9.4 41 41 Calm 30.07 1018 10 16 0.00 0.00
11:53 am 11:53 Sunny 77 25 47 8.3 35 35 Calm 30.05 1018 10 16 0.00 0.00
12:53 pm 12:53 Sunny 80 26.7 45 7.2 29 29 SE 6 9 30.02 1017 10 16 0.00 0.00
1:53 pm 13:53 Sunny 81 27.2 44 6.7 27 27 VRB 6 9 29.96 1015 10 16 0.00 0.00
2:53 pm 14:53 Sunny 82 27.8 43 6.1 25 25 SW 9 15 29.97 1015 10 16 0.00 0.00
3:53 pm 15:53 Sunny 83 28.3 44 6.7 25 25 SW 10 17 29.96 1015 10 16 0.00 0.00
4:53 pm 16:53 Sunny 83 28.3 45 7.2 26 26 SSW 8 13 29.95 1014 10 16 0.00 0.00
5:53 pm 17:53 Sunny 83 28.3 47 8.3 28 28 SSW 10 17 29.95 1014 10 16 0.00 0.00
6:53 pm 18:53 Sunny 81 27.2 47 8.3 30 30 S 9 15 29.95 1014 10 16 0.00 0.00
7:53 pm 19:53 Sunny 80 26.7 48 8.9 33 33 SSE 6 9 29.93 1013 10 16 0.00 0.00
8:53 pm 20:53 Clear 78 25.6 48 8.9 35 35 SE 3 6 29.92 1013 10 16 0.00 0.00
9:53 pm 21:53 Clear 76 24.4 49 9.4 39 39 E 5 7 29.93 1014 10 16 0.00 0.00
10:53 pm 22:53 Clear 75 23.9 50 10 41 41 ESE 8 13 29.92 1013 10 16 0.00 0.00
11:53 pm 23:53 Clear 74 23.3 51 10.6 45 45 SE 7 11 29.92 1013 10 16 0.00 0.00

Powered by AerisWeather